Regional Weather Roundup
Issued by NWS Sterling, VA

Home | Current Version | Previous Version | Graphics & Text | Print | Product List | Glossary On
Versions: 1 2 3 4 5 6 7 8 9 10 11 12 13 14 15 16 17 18 19 20 21 22 23 24 25 26 27
000
ASUS41 KLWX 212011
RWRLWX

REGIONAL WEATHER ROUNDUP
NATIONAL WEATHER SERVICE BALTIMORE MD/WASHINGTON DC
400 PM EDT MON AUG 21 2017

Note: "FAIR" indicates few or no clouds below 12,000 feet
with no significant weather and/or obstructions to visibility.
 TC=TEMPERATURE CELSIUS

 * =Non NWS site. Station does not report precipitation (e.g. rain,
    snow, etc.), thunder, or fog.

DCZ001-MDZ009-015-VAZ040>042-051-053>054-212100-
WASHINGTON METRO

CITY           SKY/WX    TMP DP  RH WIND       PRES   REMARKS
WASHINGTON NAT CLOUDY    88  79  74 S9        30.12F HX 103
DULLES         MOSUNNY   86  73  65 S7        30.13S HX  93
ANDREWS AFB    MOSUNNY   86  76  73 S10       30.12F HX  96
FT BELVOIR     MOSUNNY   86  73  64 SW6       30.12F HX  93
QUANTICO       CLOUDY    87  77  72 E13       30.12F THUNDER HX  99
COLLEGE PARK*  MOSUNNY   86  74  66 SW5       30.11F HX  94
LEESBURG*      SUNNY     91  77  62 SW6       30.13F HX 105
MANASSAS*      TSTM      75  73  94 SW8       30.13S
GAITHERSBURG*  MOSUNNY   89  75  63 SW5       30.14F HX  99

$$

MDZ006>007-011-014-212100-
BALTIMORE METRO

CITY           SKY/WX    TMP DP  RH WIND       PRES   REMARKS
BWI AIRPORT    PTSUNNY   86  79  79 SE10      30.10F HX  99
MD SCIENCE CTR   N/A     84  73  69 MISG      30.11F HX  90
MARTIN STATE   HVY RAIN  77  75  94 SW6       30.15S
ANNAPOLIS      SUNNY     86  80  82 S14G22    30.11F HX 101
FORT MEADE*    PTSUNNY   82  77  83 SE6       30.14S HX  91

$$

MDZ012-015-019>023-212100-
MARYLAND EASTERN SHORE

CITY           SKY/WX    TMP DP  RH WIND       PRES   REMARKS
OCEAN CITY     SUNNY     81  73  76 S9G17     30.18F
SALISBURY      SUNNY     83  71  67 S13       30.16F
CAMBRIDGE*     SUNNY     84  75  74 S9G16     30.14F HX  92

$$

MDZ017>025-212100-
SOUTHERN MARYLAND

CITY           SKY/WX    TMP DP  RH WIND       PRES   REMARKS
PATUXENT RIVER PTSUNNY   81  77  88 S8        30.13F
ST INIGOES     MOSUNNY   83  74  74 SE12      30.13F
LEONARDTOWN*   MOSUNNY   82  73  74 SE8       30.15F

$$

MDZ003>005-212100-
NORTH CENTRAL MARYLAND

CITY           SKY/WX    TMP DP  RH WIND       PRES   REMARKS
FREDERICK*     MOSUNNY   90  73  58 CALM      30.14F HX  98
HAGERSTOWN APT SUNNY     88  70  55 VRB5      30.13F HX  93
WESTMINSTER*   SUNNY     90  73  58 SW8       30.14F HX  98

$$

MDZ501>502-212100-
WESTERN MARYLAND

CITY           SKY/WX    TMP DP  RH WIND       PRES   REMARKS
OAKLAND*       MOSUNNY   75  64  69 SW7       30.25S
CUMBERLAND*    SUNNY     90  63  40 SW5       30.17S HX  90

$$

VAZ025>031-212100-
SHENANDOAH VALLEY

CITY           SKY/WX    TMP DP  RH WIND       PRES   REMARKS
WINCHESTER*    SUNNY     86  73  66 SE5       30.14S HX  93
FRONT ROYAL*   CLOUDY    86  73  66 S3        30.13S HX  93
LURAY*         HVY RAIN  77  72  83 NW8       30.16R
NEW MARKET*    CLOUDY    81  71  71 CALM      30.15R
STAUNTON*      CLOUDY    83  68  61 N7        30.19S
WAYNESBORO*    SUNNY     88  68  52 SW6       30.19S HX  91

$$

WVZ021-048>050-054>055-212100-
EASTERN WEST VIRGINIA PANHANDLE

CITY           SKY/WX    TMP DP  RH WIND       PRES   REMARKS
MARTINSBURG    SUNNY     87  73  62 SE6       30.12F HX  94
PETERSBURG*    MOSUNNY   90  70  51 W8        30.15S HX  95

$$

VAZ036>039-050-212100-
CENTRAL FOOTHILLS

CITY           SKY/WX    TMP DP  RH WIND       PRES   REMARKS
CHARLOTTESVILL SUNNY     87  69  54 VRB5      30.14F HX  91
CULPEPER*      MOSUNNY   91  75  59 SW9       30.12F HX 100
ORANGE*        MOSUNNY   88  73  62 CALM      30.13S HX  96
GORDONSVILLE*  SUNNY     90  75  60 SW7       30.13R HX 100
WARRENTON*     CLOUDY    82  68  63 N6        30.12F

$$

VAZ055>057-212100-
NORTH AND CENTRAL PIEDMONT

CITY           SKY/WX    TMP DP  RH WIND       PRES   REMARKS
FREDERICKSBRG* PTSUNNY   84  76  75 S9G17     30.12S HX  92
STAFFORD*      CLOUDY    82  74  75 S6        30.16S

$$

NCZ024-NYZ072-PAZ021-071-VAZ022-071-212100-
OTHER REGIONAL OBSERVATIONS

CITY           SKY/WX    TMP DP  RH WIND       PRES   REMARKS
NEW YORK CITY  CLOUDY    82  67  60 VRB3      30.16S
PHILADELPHIA   CLOUDY    84  66  54 S10       30.15S
PITTSBURGH     CLOUDY    84  71  65 S10       30.14F
ROANOKE        PTSUNNY   89  67  47 CALM      30.19F HX  92
RICHMOND       PTSUNNY   86  75  69 S12       30.15S HX  95
RALEIGH        MOSUNNY   89  70  53 SE8       30.18S HX  94

$$

ANZ530>537-212100-
MARINE OBSERVATIONS

STATION/POSITION TIME  TEMP    WIND        PRES
                       AIR SEA DIR/SP/G
                 (UTC) (F)     (DEG/KT/KT) (MB)
THOMAS PT LIGHT  2000   82 81  180/ 17/ 19   N/A
BALT KEY BRIDGE  1948   83     160/ 16/ 18 1019.1F
COVE POINT       1948   80     190/ 20/ 24 1021.2F
LEWISETTA        1948   83 85  180/ 13/ 16 1020.3F
SOLOMONS ISLAND  1948   81 83  150/ 11/ 13   N/A
PINEY POINT      1948          190/ 13/ 14   N/A

$$





USA.gov is the U.S. government's official web portal to all federal, state and local government web resources and services.